Aérodrome :
LOGIN :

S'inscrire | Disclaimer

   EN    FR    IT 

 










Légende :    VFR   VFR Marginal   IFR   IFR Intensif   IFR Très Intensif
Visi : 
Plafond : 
>= 8 km
>= 3000ft
5 à 8 km
1000 à 3000 ft
1500m à 5 km
500 à 1000 ft
800 à 1500m
200 à 500 ft
< 800m
< 200 ft
Symboles :   Orages  Brouillard  Fortes neiges  Fortes précipitations  Vent > 20 kt
SIGMETs :   Divers  Orages  Givrage  Turbulence  Onde Orograph.  Cendres Volcan.







- Altitude de l'aérodrome : 74 ft
- Code IATA : MRS
- Voir les cartes d'approche


LFML - Marseille / Marignane

DERNIER METAR :
  • 240430Z AUTO 14005KT CAVOK 07/M02 Q1022 NOSIG

METARs EXPIRÉS :
  • 240400Z AUTO 14005KT CAVOK 06/M01 Q1022 NOSIG
  • 240330Z AUTO VRB01KT 9999 FEW011 07/M01 Q1022 NOSIG
  • 240300Z AUTO VRB01KT CAVOK 09/M01 Q1022 NOSIG
  • 240230Z AUTO 16002KT CAVOK 07/M01 Q1022 NOSIG
  • 240200Z AUTO 14003KT CAVOK 08/M01 Q1022 NOSIG

TAF TAF LFML
Valide du 24 à 03h jusqu'au 25 à 09h UTC


240200Z 2403/2509 VRB05KT CAVOK TX24/2414Z TN08/2405Z
BECMG 2413/2415 22008KT
BECMG 2417/2419 VRB05KT
BECMG 2500/2502 35010KT
BECMG 2504/2506 34015G30KT
ATIS : +33 4 42 31 15 15
Pas de NOTAMs connus pour ce terrain.



MET'MAP, la Météo Aéronautique d'un coup d'oeil ! - Copyright ORBIFLY Décembre 2007 - Disclaimer

ORBIFLY MET'MAP TEAM :

Programmation & Développement : Alexandra Zaïnal
Conception & Développement : Baudouin d'Aumeries
Co-Programmation & Développement : Marc-Olivier Méhu
Soutien technique & logistique : Manuel Goepfert

Contact : metmap@orbifly.com




SOURCES & CREDITS :

   NOAA